Weather History for Cross City, FL

Change the Weather History Date:

Tuesday, July 30, 2013

  Actual Average Record
Temperature  
Mean Temperature 84 °F 82 °F  
Max Temperature 93 °F 91 °F 98 °F (2010)
Min Temperature 74 °F 72 °F 66 °F (2014)
Degree Days  
Heating Degree Days 0 0  
Month to date heating degree days 0 0  
Since 1 June heating degree days 0 0  
Since 1 July heating degree days 0 0  
Cooling Degree Days 19 17  
Month to date cooling degree days 474 494  
Year to date cooling degree days 1486 1420  
Since 1 June cooling degree days 951 941  
Growing Degree Days 33 (Base 50)    
Moisture  
Dew Point 73 °F    
Average Humidity 80    
Maximum Humidity 100    
Minimum Humidity 52    
Precipitation  
Precipitation 0.11 in 0.21 in 0.92 in (2008)
Month to date precipitation 20.50 5.46  
Year to date precipitation 42.39 27.72  
Sea Level Pressure  
Sea Level Pressure 30.14 in    
Wind  
Wind Speed 2 mph (WNW)    
Max Wind Speed 14 mph    
Max Gust Speed 18 mph    
T = Trace of Precipitation, MM = Missing Value Source: NWS Daily Summary

Daily Weather History Graph

Daily Weather History Graph

Search for Another Location

Airport:

Trip Planner

Search our weather history database for the weather conditions in past years. The results will help you decide how hot, cold, wet, or windy it might be!

Date:

Astronomy

Jul. 30, 2013 Rise Set
Actual Time 6:51 AM EDT 8:26 PM EDT
Civil Twilight 6:25 AM EDT 8:52 PM EDT
Nautical Twilight 5:54 AM EDT 9:23 PM EDT
Astronomical Twilight 5:21 AM EDT 9:55 PM EDT
Moon 1:04 AM EDT (7/30) 2:46 PM EDT (7/30)
Length of Visible Light 14h 26m
Length of Day
13h 35m
Last Quarter, 41% of the Moon is Illuminated
Jul 30
Last Quarter
Aug 6
New
Aug 14
First Quarter
Aug 20
Full
Aug 28
Last Quarter

Hourly Weather History & Observations

Time (EDT) Temp. Heat Index Dew Point Humidity Pressure Visibility Wind Dir Wind Speed Gust Speed Precip Events Conditions
12:53 AM 77.0 °F - 73.9 °F 90% 30.14 in - Calm Calm - 0.01 in   Unknown
1:53 AM 77.0 °F - 75.0 °F 94% 30.15 in - ESE 4.6 mph - N/A   Unknown
2:53 AM 77.0 °F - 73.9 °F 90% 30.14 in - Calm Calm - N/A   Unknown
3:53 AM 75.9 °F - 73.9 °F 94% 30.13 in - Calm Calm - 0.02 in   Unknown
4:53 AM 75.9 °F - 73.9 °F 94% 30.13 in - Calm Calm - N/A   Unknown
5:53 AM 75.0 °F - 73.0 °F 94% 30.13 in - Calm Calm - N/A   Unknown
6:53 AM 73.9 °F - 73.0 °F 97% 30.15 in - Calm Calm - 0.02 in   Unknown
7:53 AM 75.0 °F - 73.9 °F 96% 30.17 in - Calm Calm - 0.01 in   Unknown
8:53 AM 82.0 °F 89.4 °F 75.9 °F 82% 30.19 in - Calm Calm - N/A   Unknown
9:53 AM 86.0 °F 96.0 °F 75.9 °F 72% 30.18 in - Calm Calm - N/A   Unknown
10:53 AM 87.1 °F 94.5 °F 73.0 °F 63% 30.18 in - WNW 3.5 mph - N/A   Unknown
11:53 AM 89.1 °F 97.0 °F 73.0 °F 59% 30.17 in - West 4.6 mph - N/A   Unknown
12:53 PM 90.0 °F 97.9 °F 73.0 °F 57% 30.16 in - Calm Calm - N/A   Unknown
1:53 PM 93.0 °F 103.2 °F 73.9 °F 54% 30.14 in - NW 4.6 mph - 0.01 in   Unknown
2:53 PM 91.0 °F 98.2 °F 72.0 °F 53% 30.12 in - Calm Calm - N/A   Unknown
3:53 PM 88.0 °F 97.5 °F 75.0 °F 65% 30.10 in - SW 10.4 mph 17.3 mph N/A   Unknown
4:53 PM 80.1 °F 83.8 °F 72.0 °F 76% 30.10 in - West 11.5 mph - N/A   Unknown
5:53 PM 80.1 °F 84.2 °F 73.0 °F 79% 30.08 in - Calm Calm - N/A   Unknown
6:53 PM 80.1 °F 82.9 °F 69.1 °F 69% 30.12 in - East 9.2 mph 16.1 mph N/A   Unknown
7:53 PM 77.0 °F - 71.1 °F 82% 30.13 in - Calm Calm - N/A   Unknown
8:53 PM 75.0 °F - 73.0 °F 94% 30.13 in - ENE 3.5 mph - N/A   Unknown
9:53 PM 73.9 °F - 72.0 °F 93% 30.14 in - Calm Calm - 0.01 in   Unknown
10:53 PM 75.0 °F - 73.0 °F 94% 30.14 in - Calm Calm - 0.02 in   Unknown
11:53 PM 73.9 °F - 73.0 °F 97% 30.14 in - Calm Calm - 0.01 in   Unknown